Home   Weather   Enugu   Past weeks

Flag for Nigeria Past Weather in Enugu, Nigeria — Yesterday and Last 2 Weeks

Now
91 °F

Scattered clouds.


Feels Like: 103 °F
Forecast: 76 / 99 °F
Wind: 8 mph from West

Location: Douala Obs.

Current Time: Feb 27, 2017 at 5:16:33 pm

Latest Report: Feb 27, 2017 at 4:00 pm


Visibility: N/A

Pressure: 29.68 "Hg

Humidity: 59%

Dew Point: 75 °F

Location of EnuguLocation

Past Weather in Enugu — Graph

°F

Enugu Temperature Yesterday

Maximum temperature yesterday: 91 °F (at 12:00 pm)
Minimum temperature yesterday: 79 °F (at 7:00 am)
Average temperature yesterday: 84 °F

High & Low Weather Summary for the Past Weeks

 TemperatureHumidityPressure
High95 °F (Feb 13, 2:00 pm)100% (Feb 13, 5:00 am)29.92 "Hg (Feb 13, 5:00 am)
Low73 °F (Feb 17, 5:00 am)53% (Feb 13, 2:00 pm)29.68 "Hg (Feb 12, 4:00 pm)
Average84 °F80%29.81 "Hg
* Reported Feb 12 4:00 pm — Feb 27 4:00 pm, Enugu, Weather by CustomWeather, © 2017

Note: Actual official high and low records may vary slightly from our data, if they occured in-between our weather recording intervals... More about our weather records

Advertising

Enugu Weather History for the Previous 24 Hours

Scroll right to see more
 ConditionsComfort  
Time TempWeatherWind HumidityBarometerVisibility
4:00 pm
Mon, Feb 27
91 °FScattered clouds.8 mph59%29.68 "HgN/A
3:00 pm91 °FScattered clouds.9 mph56%29.68 "Hg5 mi
2:00 pm91 °FScattered clouds.9 mph63%29.71 "Hg5 mi
1:00 pm91 °FScattered clouds.9 mph67%29.77 "Hg4 mi
12:00 pm90 °FScattered clouds.5 mph63%29.77 "Hg4 mi
11:00 am88 °FPartly sunny.3 mph66%29.80 "Hg4 mi
10:00 am88 °FScattered clouds.2 mph66%29.83 "Hg4 mi
9:00 am84 °FFog.No wind79%29.83 "Hg1 mi
8:00 am81 °FFog.No wind89%29.80 "Hg1 mi
7:00 am79 °FFog.No wind94%29.80 "Hg1 mi
6:00 am81 °FPassing clouds.No wind94%29.77 "Hg4 mi
5:00 am81 °FPassing clouds.No wind94%29.77 "Hg5 mi
4:00 am81 °FPassing clouds.No wind94%29.77 "Hg5 mi
3:00 am81 °FPassing clouds.1 mph94%29.77 "HgN/A
2:00 am81 °FPassing clouds.1 mph94%29.77 "HgN/A
1:00 am81 °FPassing clouds.1 mph94%29.77 "HgN/A
12:00 am81 °FPassing clouds.2 mph94%29.80 "HgN/A
11:00 pm
Sun, Feb 26
81 °FPassing clouds.1 mph94%29.80 "HgN/A
10:00 pm82 °FPassing clouds.2 mph84%29.80 "HgN/A
9:00 pm82 °FPassing clouds.5 mph84%29.77 "Hg5 mi
8:00 pm82 °FPassing clouds.3 mph84%29.74 "Hg5 mi
7:00 pm84 °FPassing clouds.3 mph74%29.71 "Hg5 mi
6:00 pm84 °FScattered clouds.7 mph74%29.71 "Hg5 mi
5:00 pm88 °FScattered clouds.12 mph66%29.71 "Hg5 mi
Weather by CustomWeather, © 2017

See weather overviewHow to use our weather pages